[[{"header":{"parameterUnit":"m.s-1","parameterCategory":2,"la1":30.2991,"la2":30.254,"lo1":-89.0895,"lo2":-89.0444,"dy":0.0017,"dx":0.0017,"nx":28,"ny":28,"refTime":"2023-08-25T03:00:00:Z","depth":"0","parameterNumber":2,"parameterNumberName":"U-component_of_CURRENTS"},"data":[0,0,0,0,0,0,0,0,0,0,0,0,0,0,0,0,0,0,0,0,0,0,0,0,0,0,0,0,0,0,0,0,0,0,0,0,0,0,0,0,0,0,0,0,0,0,0,0,0,0,0,0,0,0,0,0,0,0,0.3124,0.3125,0,0.3144,0.3144,0.3144,0.3135,0.3135,0.3135,0.3135,0.3085,0.3083,0.3082,0,0,0,0,0,0,0,0,0,0,0,0,0,0.3013,0.3015,0.3124,0.3125,0.3126,0.3144,0.3144,0.3144,0.3135,0.3135,0.3135,0.3135,0.3085,0.3084,0.3082,0,0,0,0,0,0,0,0,0,0,0,0,0,0.3046,0.3016,0.3124,0.3127,0.3127,0.3144,0.3144,0.3144,0.3135,0.3135,0.3135,0.3135,0.3086,0.3084,0.3082,0.3073,0,0,0.3076,0.3075,0,0,0,0,0,0,0,0,0.3044,0.305,0.3126,0.3127,0.3128,0.3141,0.3087,0.3118,0.3135,0.3128,0.3135,0.3135,0.31,0.3097,0.3096,0.307,0.3068,0.3076,0.3075,0.3074,0.3073,0,0,0,0,0,0,0,0.3042,0.3048,0.3128,0.3126,0.3128,0.3105,0.3109,0.3092,0.3109,0.3128,0.3129,0.3138,0.3099,0.3097,0.3094,0.3068,0.3076,0.3074,0.3073,0.3072,0.3108,0.311,0,0,0,0,0,0,0.3053,0.3047,0.3127,0.3129,0.309,0.3107,0.3112,0.3133,0.3111,0.311,0.3138,0.3138,0.3101,0.3096,0.3092,0.3139,0.3074,0.3072,0.3071,0.3106,0.3109,0.3111,0,0,0,0,0,0,0.305,0.306,0.3126,0.309,0.3098,0.311,0.3133,0.3134,0.3141,0.312,0.3116,0.3146,0.31,0.3095,0.3099,0.3134,0.3071,0.307,0.3104,0.3107,0.311,0.3193,0,0,0,0,0,0,0.3047,0.3059,0.3076,0.3092,0.3101,0.3152,0.3134,0.3134,0.3148,0.3148,0.3126,0.3121,0.31,0.3102,0.3097,0.313,0.3068,0.3101,0.3105,0.3109,0.3188,0.3199,0.3208,0,0,0,0,0,0.3043,0.3069,0.3077,0.3086,0.3124,0.3153,0.3156,0.3159,0.3149,0.3162,0.3151,0.3122,0.3124,0.3102,0.3095,0.3129,0.3099,0.3104,0.3109,0.3183,0.3196,0.3208,0,0,0,0,0,0,0.303,0.3071,0.308,0.3117,0.3142,0.3154,0.3164,0.3166,0.3167,0.3162,0.3137,0.3132,0.3157,0.3131,0.3107,0.3155,0.3111,0.3115,0.317,0.3182,0.3192,0.325,0.3067,0,0,0,0,0,0.3037,0.3066,0.31,0.313,0.3142,0.3153,0.3164,0.317,0.3176,0.3176,0.3168,0.3161,0.3171,0.3165,0.3167,0.3176,0.321,0.32,0.321,0.3219,0.3264,0.3324,0.3344,0.3126,0.3126,0.3126,0,0,0.3039,0.3067,0.3083,0.3129,0.3141,0.3169,0.3158,0.3182,0.3212,0.3169,0.3199,0.3196,0.3184,0.3212,0.322,0.3191,0.3303,0.3224,0.3232,0.3273,0.3331,0.3352,0.3371,0.3129,0.3129,0.3128,0,0,0.3059,0.3084,0.3114,0.3136,0.317,0.3182,0.3194,0.3219,0.3236,0.3257,0.3255,0.3289,0.3264,0.3298,0.33,0.3368,0.3362,0.3351,0.3438,0.3495,0.3514,0.353,0.3624,0.3648,0.3347,0.3347,0.3347,0,0.3061,0.3108,0.3126,0.3159,0.3185,0.3192,0.3229,0.3248,0.3275,0.3307,0.3275,0.3333,0.3319,0.3396,0.3427,0.3396,0.3431,0.3385,0.3509,0.3527,0.3543,0.3634,0.366,0.3352,0.3351,0.3351,0.335,0,0.3102,0.3138,0.3156,0.3204,0.3233,0.3264,0.33,0.3333,0.3342,0.3368,0.3444,0.3451,0.3491,0.3493,0.3476,0.3593,0.3586,0.3521,0.3479,0.357,0.366,0.3686,0.3358,0.3357,0.3355,0.3354,0,0,0.311,0.3175,0.3179,0.3213,0.3262,0.3292,0.3349,0.3417,0.3468,0.3499,0.358,0.3628,0.3647,0.3659,0.366,0.372,0.3866,0.3675,0.3675,0.3772,0.4027,0.397,0.3992,0.3806,0.381,0.3814,0.4053,0,0.3139,0.3208,0.3236,0.3299,0.334,0.3373,0.3428,0.3488,0.353,0.3604,0.3658,0.3723,0.3702,0.3733,0.3797,0.384,0.3934,0.381,0.3923,0.3928,0.3869,0.402,0.3865,0.4059,0.4078,0.4082,0.4085,0,0.3169,0.3218,0.329,0.3366,0.3386,0.3422,0.3523,0.3574,0.3675,0.3711,0.3799,0.3831,0.3964,0.3903,0.408,0.3994,0.4048,0.408,0.4087,0.403,0.3919,0.3967,0.4105,0.3993,0.4124,0.4121,0.4118,0,0.3173,0.3251,0.3315,0.3339,0.3425,0.347,0.3514,0.361,0.3671,0.3797,0.3856,0.3982,0.4062,0.4142,0.4224,0.4156,0.4406,0.4298,0.4325,0.4322,0.4217,0.4196,0.4264,0.4461,0.4461,0.446,0.4459,0,0.3195,0.3244,0.3319,0.3353,0.3423,0.3485,0.3567,0.363,0.374,0.3816,0.3919,0.4015,0.4124,0.4257,0.43,0.4419,0.4473,0.4413,0.4396,0.4242,0.4221,0.4134,0.408,0.4469,0.4467,0.4465,0.4464,0,0.3195,0.3242,0.3317,0.3407,0.3426,0.3481,0.3568,0.3629,0.3745,0.3855,0.3906,0.4086,0.4257,0.4384,0.4542,0.4527,0.4507,0.4655,0.4494,0.4452,0.4297,0.4253,0.4197,0.4073,0.4716,0.4716,0.4716,0,0.321,0.325,0.3335,0.3361,0.3399,0.3469,0.3507,0.3611,0.367,0.3881,0.3929,0.4164,0.4272,0.4525,0.4584,0.471,0.4563,0.4623,0.4456,0.4336,0.4276,0.4078,0.3962,0.4373,0.4371,0.4368,0.4367,0,0.3239,0.3266,0.3312,0.335,0.3388,0.3423,0.3481,0.3524,0.3652,0.3764,0.3904,0.402,0.429,0.4352,0.4549,0.4583,0.4381,0.458,0.4491,0.4078,0.3835,0.3688,0.4197,0.4348,0.435,0.4351,0.4352,0.4353,0.3253,0.3261,0.3294,0.3318,0.3345,0.3337,0.3328,0.3405,0.3472,0.3593,0.3781,0.3917,0.4121,0.4359,0.4367,0.4308,0.4272,0.4187,0.4176,0.4011,0.3783,0.4277,0.4358,0.4359,0.4361,0.4363,0.4364,0,0.3237,0.3225,0.3253,0.324,0.3217,0.3256,0.3271,0.3241,0.3261,0.344,0.3557,0.3767,0.3862,0.3993,0.4054,0.3935,0.3717,0.3839,0.3532,0.3459,0.3954,0.3826,0.3748,0.3748,0.3748,0.3748,0.3748,0.3748,0.3223,0.3203,0.3184,0.31,0.3084,0.2997,0.2975,0.2961,0.3032,0.3119,0.3236,0.3397,0.3649,0.3806,0.3727,0.364,0.3364,0.3226,0.321,0.3572,0.3602,0.363,0.3496,0.3349,0.3349,0.254,0.2534,0.253]},{"header":{"parameterUnit":"m.s-1","parameterCategory":2,"la1":30.2991,"la2":30.254,"lo1":-89.0895,"lo2":-89.0444,"dy":0.0017,"dx":0.0017,"nx":28,"ny":28,"refTime":"2023-08-25T03:00:00:Z","depth":"0","parameterNumber":3,"parameterNumberName":"V-component_of_CURRENTS"},"data":[0,0,0,0,0,0,0,0,0,0,0,0,0,0,0,0,0,0,0,0,0,0,0,0,0,0,0,0,0,0,0,0,0,0,0,0,0,0,0,0,0,0,0,0,0,0,0,0,0,0,0,0,0,0,0,0,0,0,-0.032,-0.0321,0,-0.0369,-0.037,-0.037,-0.0393,-0.0392,-0.0392,-0.0392,-0.0473,-0.0475,-0.0477,0,0,0,0,0,0,0,0,0,0,0,0,0,-0.0309,-0.0309,-0.032,-0.0321,-0.0321,-0.0369,-0.037,-0.037,-0.0393,-0.0392,-0.0392,-0.0392,-0.0472,-0.0475,-0.0477,0,0,0,0,0,0,0,0,0,0,0,0,0,-0.0332,-0.0309,-0.032,-0.0338,-0.034,-0.0369,-0.037,-0.0371,-0.0393,-0.0392,-0.0392,-0.0392,-0.0471,-0.0474,-0.0478,-0.05,0,0,-0.0488,-0.0489,0,0,0,0,0,0,0,0,-0.033,-0.0332,-0.0335,-0.0337,-0.0339,-0.0374,-0.0395,-0.0416,-0.0393,-0.0373,-0.0392,-0.0392,-0.0443,-0.0448,-0.0458,-0.0504,-0.0508,-0.0488,-0.049,-0.0491,-0.0492,0,0,0,0,0,0,0,-0.0329,-0.033,-0.034,-0.0335,-0.0338,-0.0365,-0.0368,-0.04,-0.0409,-0.0375,-0.0376,-0.0381,-0.0444,-0.0454,-0.046,-0.0509,-0.0488,-0.0491,-0.0493,-0.0494,-0.0569,-0.0569,0,0,0,0,0,0,-0.0319,-0.0328,-0.0338,-0.0341,-0.0334,-0.0365,-0.0368,-0.0363,-0.0408,-0.0414,-0.0381,-0.0382,-0.0449,-0.0456,-0.0463,-0.0466,-0.0491,-0.0495,-0.0496,-0.0569,-0.0569,-0.0569,0,0,0,0,0,0,-0.0318,-0.0319,-0.0336,-0.0337,-0.0341,-0.0365,-0.036,-0.0364,-0.0377,-0.0412,-0.0419,-0.039,-0.0449,-0.0458,-0.0492,-0.047,-0.0496,-0.0499,-0.0569,-0.0569,-0.0569,-0.0489,0,0,0,0,0,0,-0.0317,-0.0318,-0.0309,-0.0335,-0.034,-0.0342,-0.036,-0.0365,-0.038,-0.0382,-0.0422,-0.0429,-0.045,-0.0487,-0.0495,-0.0475,-0.0502,-0.0569,-0.0569,-0.0569,-0.0492,-0.0487,-0.0482,0,0,0,0,0,-0.0317,-0.0299,-0.0308,-0.0309,-0.0327,-0.0342,-0.0346,-0.0364,-0.0381,-0.0378,-0.0413,-0.0428,-0.0492,-0.049,-0.05,-0.048,-0.0569,-0.0569,-0.0569,-0.0494,-0.0488,-0.0482,0,0,0,0,0,0,-0.027,-0.03,-0.0311,-0.0297,-0.0315,-0.0345,-0.0342,-0.0366,-0.0392,-0.0393,-0.0436,-0.0445,-0.0467,-0.0492,-0.0488,-0.0504,-0.053,-0.0532,-0.047,-0.0464,-0.0459,-0.0399,-0.0504,0,0,0,0,0,-0.026,-0.0265,-0.0291,-0.0278,-0.0286,-0.0318,-0.0327,-0.034,-0.0369,-0.038,-0.0412,-0.0445,-0.0475,-0.0484,-0.0516,-0.0527,-0.0509,-0.052,-0.0515,-0.0511,-0.047,-0.0443,-0.043,-0.0569,-0.0569,-0.0569,0,0,-0.0236,-0.0255,-0.0254,-0.0271,-0.0286,-0.028,-0.0322,-0.0327,-0.0319,-0.0386,-0.0388,-0.0436,-0.0479,-0.0488,-0.0498,-0.0503,-0.0463,-0.0511,-0.0506,-0.0467,-0.0441,-0.0427,-0.0415,-0.0569,-0.0569,-0.0569,0,0,-0.0187,-0.0207,-0.0192,-0.0208,-0.0229,-0.025,-0.0252,-0.0283,-0.0293,-0.0312,-0.0356,-0.0381,-0.0434,-0.0443,-0.046,-0.0448,-0.0447,-0.0472,-0.0384,-0.036,-0.0347,-0.0335,-0.0288,-0.0273,-0.0458,-0.0458,-0.0458,0,-0.0152,-0.0138,-0.0187,-0.0176,-0.0175,-0.0233,-0.0205,-0.0227,-0.0265,-0.0252,-0.0299,-0.0339,-0.0399,-0.0376,-0.0386,-0.0429,-0.0411,-0.0402,-0.0348,-0.0337,-0.0326,-0.0281,-0.0265,-0.0454,-0.0455,-0.0455,-0.0455,0,-0.0097,-0.0084,-0.0075,-0.0082,-0.0088,-0.0077,-0.0111,-0.0111,-0.0143,-0.0157,-0.0154,-0.0227,-0.0231,-0.0277,-0.0337,-0.029,-0.03,-0.0352,-0.0352,-0.0306,-0.0263,-0.0248,-0.0449,-0.045,-0.0451,-0.0452,0,0,-0.0014,-0.0031,-0.0024,0.0002,-0.0036,-0.002,-0.0011,0.0004,0.0054,-0.0007,0.0067,-0.0033,-0.0056,-0.0077,-0.0146,-0.0149,-0.0094,-0.0217,-0.0217,-0.0147,-0.0013,-0.005,-0.0037,-0.0139,-0.0136,-0.0134,-0.001,0,0.0054,0.011,0.0069,0.0133,0.0168,0.0121,0.0149,0.0153,0.0143,0.0196,0.0137,0.0161,0.0016,0.0029,0.0001,-0.0071,-0.0051,-0.0121,-0.0086,-0.0084,-0.0104,-0.002,-0.0054,0.0051,0.0005,0.0008,0.0009,0,0.0133,0.016,0.0239,0.0275,0.0288,0.0316,0.0383,0.0398,0.0432,0.0433,0.0445,0.0399,0.0393,0.0263,0.0214,0.0176,0.0103,0.0038,0.0041,-0.0,-0.0091,-0.0007,0.008,-0.0148,0.0033,0.0031,0.0029,0,0.0253,0.0286,0.0363,0.0371,0.0397,0.0444,0.0461,0.0493,0.0556,0.0613,0.0688,0.0642,0.0676,0.056,0.0396,0.032,0.0357,0.0241,0.016,0.0157,0.0136,0.0126,0.003,0.0249,0.0249,0.0249,0.0248,0,0.0352,0.042,0.0437,0.0487,0.0608,0.0574,0.0709,0.0724,0.0798,0.0925,0.0838,0.0953,0.075,0.0725,0.0529,0.0415,0.0473,0.0224,0.0199,0.0159,0.015,-0.0047,-0.0169,0.0253,0.0252,0.0252,0.0251,0,0.0493,0.049,0.0595,0.0646,0.0676,0.0773,0.0867,0.0969,0.101,0.1188,0.1228,0.1233,0.1196,0.0994,0.0847,0.0632,0.0372,0.0438,0.0412,0.0381,0.0034,-0.0082,-0.0128,-0.0226,0.0372,0.0372,0.0372,0,0.0574,0.0643,0.0739,0.0816,0.0851,0.0969,0.1062,0.1096,0.1205,0.1372,0.1488,0.1521,0.157,0.1347,0.0975,0.0696,0.0456,0.0466,0.0291,0.0057,-0.009,-0.0176,-0.0262,0.0303,0.0302,0.0302,0.0301,0,0.0741,0.0775,0.0858,0.0997,0.1108,0.1231,0.1355,0.1471,0.1547,0.1703,0.1895,0.1957,0.1759,0.1473,0.1069,0.0821,0.0289,0.0446,0.0217,-0.0121,-0.0226,-0.0347,0.0186,0.0297,0.0298,0.0298,0.0298,0.0298,0.0875,0.0954,0.1042,0.1171,0.1302,0.145,0.1565,0.1712,0.1904,0.2128,0.2177,0.2309,0.1865,0.1306,0.0967,0.027,0.0282,0.0019,-0.0084,-0.0134,-0.0292,0.0243,0.0297,0.0297,0.0298,0.0298,0.0298,0,0.0997,0.1058,0.1198,0.1332,0.1475,0.1513,0.1725,0.1849,0.208,0.2326,0.2487,0.2332,0.1783,0.1187,0.0274,-0.019,-0.0382,-0.0446,-0.06,-0.0653,-0.0159,-0.0234,-0.0307,-0.0307,-0.0307,-0.0307,-0.0306,-0.0306,0.1065,0.1177,0.1212,0.1424,0.1533,0.1712,0.1827,0.2051,0.2246,0.2515,0.2607,0.2647,0.2138,0.0609,-0.0464,-0.0716,-0.1025,-0.1077,-0.1212,-0.0937,-0.0904,-0.0872,-0.0973,-0.12,-0.1202,-0.1685,-0.169,-0.1694]}],[{"header":{"parameterUnit":"m.s-1","parameterCategory":2,"la1":30.2991,"la2":30.254,"lo1":-89.0895,"lo2":-89.0444,"dy":0.0017,"dx":0.0017,"nx":28,"ny":28,"refTime":"2023-08-25T03:00:00:Z","depth":"2","parameterNumber":2,"parameterNumberName":"U-component_of_CURRENTS"},"data":[0,0,0,0,0,0,0,0,0,0,0,0,0,0,0,0,0,0,0,0,0,0,0,0,0,0,0,0,0,0,0,0,0,0,0,0,0,0,0,0,0,0,0,0,0,0,0,0,0,0,0,0,0,0,0,0,0,0,0.2374,0.2375,0,0.2413,0.2413,0.2413,0.2429,0.243,0.243,0.2431,0.2488,0.2489,0.249,0,0,0,0,0,0,0,0,0,0,0,0,0,0.2297,0.2298,0.2373,0.2375,0.2376,0.2413,0.2413,0.2413,0.2429,0.243,0.2431,0.2431,0.2488,0.2489,0.249,0,0,0,0,0,0,0,0,0,0,0,0,0,0.2325,0.2298,0.2373,0.2395,0.2398,0.2413,0.2413,0.2413,0.2429,0.243,0.2431,0.2432,0.2488,0.2489,0.249,0.2478,0,0,0.2494,0.2495,0,0,0,0,0,0,0,0,0.2323,0.2326,0.239,0.2393,0.2397,0.2425,0.2407,0.2438,0.2428,0.2408,0.2431,0.2432,0.2473,0.2476,0.2469,0.248,0.2483,0.2494,0.2495,0.2496,0.2496,0,0,0,0,0,0,0,0.2321,0.2325,0.2381,0.2392,0.2396,0.2398,0.2402,0.2412,0.2428,0.241,0.2413,0.2431,0.2474,0.2467,0.2471,0.2484,0.2494,0.2496,0.2496,0.2497,0.2585,0.2587,0,0,0,0,0,0,0.2333,0.2323,0.2379,0.2383,0.2371,0.2399,0.2404,0.2408,0.2428,0.2434,0.243,0.2432,0.2465,0.2469,0.2473,0.2546,0.2496,0.2497,0.2498,0.2584,0.2585,0.2587,0,0,0,0,0,0,0.2331,0.2337,0.2378,0.2361,0.2368,0.2401,0.2404,0.2408,0.2421,0.2444,0.245,0.2443,0.2466,0.2471,0.25,0.2546,0.2498,0.2499,0.2582,0.2584,0.2586,0.2638,0,0,0,0,0,0,0.2328,0.2335,0.2347,0.2362,0.237,0.241,0.2404,0.2408,0.2433,0.2436,0.2457,0.2462,0.2467,0.2498,0.2502,0.2547,0.25,0.258,0.2583,0.2586,0.2635,0.2642,0.2649,0,0,0,0,0,0.2325,0.2347,0.2347,0.2355,0.2382,0.2413,0.2416,0.2437,0.2433,0.2448,0.2457,0.2462,0.252,0.25,0.2504,0.255,0.2578,0.2582,0.2585,0.2632,0.2641,0.2649,0,0,0,0,0,0,0.2326,0.2352,0.2352,0.2381,0.2404,0.2419,0.2443,0.2444,0.2458,0.2466,0.2469,0.2475,0.252,0.2523,0.2501,0.2585,0.2555,0.256,0.259,0.2598,0.2605,0.2633,0.2501,0,0,0,0,0,0.2329,0.2352,0.2372,0.24,0.241,0.2422,0.2438,0.2452,0.2468,0.2475,0.2488,0.2508,0.2533,0.2555,0.2572,0.261,0.2627,0.2647,0.2654,0.266,0.2687,0.2731,0.2744,0.2599,0.2599,0.2599,0,0,0.2335,0.2359,0.2369,0.2402,0.2416,0.244,0.2433,0.247,0.2496,0.248,0.2518,0.2528,0.2545,0.2592,0.2615,0.2605,0.2711,0.2665,0.2669,0.2693,0.2736,0.275,0.2763,0.2601,0.2601,0.26,0,0,0.2364,0.238,0.2402,0.2419,0.246,0.2474,0.2487,0.2509,0.2527,0.2568,0.256,0.2598,0.2634,0.2656,0.2672,0.2728,0.2739,0.2737,0.2806,0.2848,0.286,0.2872,0.2913,0.2927,0.2749,0.275,0.275,0,0.2368,0.2397,0.2416,0.2441,0.2466,0.2489,0.2515,0.2538,0.2569,0.2593,0.26,0.266,0.2674,0.2726,0.2758,0.2747,0.277,0.2769,0.2858,0.2869,0.288,0.2919,0.2935,0.2752,0.2752,0.2752,0.2752,0,0.2398,0.2426,0.2446,0.2482,0.2514,0.2545,0.2581,0.2617,0.265,0.2674,0.2739,0.2757,0.2799,0.2813,0.2813,0.2892,0.2883,0.2852,0.2835,0.2898,0.2935,0.295,0.2757,0.2756,0.2755,0.2754,0,0,0.2392,0.245,0.246,0.2478,0.2535,0.2562,0.2626,0.2684,0.2729,0.2778,0.2839,0.2895,0.2906,0.2926,0.2921,0.2974,0.3071,0.2962,0.2962,0.3003,0.3174,0.3108,0.3118,0.3053,0.3056,0.3059,0.317,0,0.2406,0.2452,0.249,0.2543,0.2562,0.2614,0.2668,0.273,0.2794,0.2859,0.2904,0.2962,0.2945,0.298,0.3027,0.3059,0.3114,0.3044,0.3109,0.3112,0.3045,0.3134,0.2889,0.2963,0.3185,0.3187,0.3189,0,0.2412,0.245,0.2493,0.2565,0.258,0.2626,0.2726,0.2781,0.288,0.2932,0.3003,0.3033,0.312,0.3095,0.3199,0.3156,0.3184,0.3207,0.3211,0.3147,0.3075,0.2937,0.2982,0.3214,0.3212,0.321,0.3208,0,0.2389,0.2451,0.2488,0.2506,0.259,0.264,0.2704,0.2807,0.2869,0.2989,0.3056,0.3132,0.3199,0.3246,0.3302,0.3265,0.3414,0.3354,0.3318,0.3313,0.3119,0.3092,0.3438,0.3438,0.3438,0.3437,0.3437,0,0.2382,0.242,0.2478,0.2505,0.2567,0.2632,0.2725,0.2806,0.292,0.2999,0.3087,0.3155,0.3248,0.333,0.3349,0.3394,0.345,0.3365,0.335,0.3129,0.3103,0.3323,0.3308,0.3442,0.3441,0.344,0.3439,0,0.236,0.2397,0.2434,0.2518,0.2559,0.2603,0.2742,0.2797,0.2922,0.3035,0.3084,0.3216,0.3327,0.3402,0.3502,0.3461,0.3503,0.3497,0.3239,0.3191,0.3361,0.3347,0.3474,0.3473,0.3472,0.3471,0.3471,0,0.2358,0.2361,0.2436,0.2456,0.2504,0.2587,0.2649,0.2791,0.285,0.305,0.3086,0.3256,0.332,0.3446,0.3442,0.3481,0.3525,0.3254,0.3136,0.3399,0.3371,0.3359,0.3347,0.29,0.2895,0.2891,0.2887,0,0.2323,0.2334,0.2389,0.2409,0.2464,0.2523,0.2625,0.2674,0.2832,0.2927,0.3041,0.3123,0.3275,0.3202,0.3274,0.3245,0.3226,0.3167,0.3527,0.2925,0.2865,0.2835,0.2841,0.2849,0.2853,0.2855,0.2857,0.2859,0.2297,0.2304,0.2322,0.2347,0.2387,0.2401,0.2438,0.2521,0.2594,0.2693,0.2864,0.2908,0.299,0.2962,0.2895,0.2858,0.3064,0.2915,0.2925,0.2941,0.285,0.2792,0.2745,0.2748,0.2751,0.2754,0.2756,0,0.2212,0.2224,0.2237,0.2246,0.2224,0.2301,0.236,0.2348,0.2359,0.2509,0.2581,0.2439,0.2425,0.2517,0.2412,0.2419,0.2359,0.2315,0.2213,0.2256,0.2293,0.2164,0.188,0.1877,0.1874,0.1871,0,0,0.2181,0.2135,0.2131,0.2048,0.2074,0.2037,0.2054,0.2043,0.2095,0.2078,0.2112,0.2316,0.2464,0.2134,0.2108,0.1981,0.2092,0.1905,0.262,0.2545,0.2578,0.2667,0.2523,0,0,0,0,0]},{"header":{"parameterUnit":"m.s-1","parameterCategory":2,"la1":30.2991,"la2":30.254,"lo1":-89.0895,"lo2":-89.0444,"dy":0.0017,"dx":0.0017,"nx":28,"ny":28,"refTime":"2023-08-25T03:00:00:Z","depth":"2","parameterNumber":3,"parameterNumberName":"V-component_of_CURRENTS"},"data":[0,0,0,0,0,0,0,0,0,0,0,0,0,0,0,0,0,0,0,0,0,0,0,0,0,0,0,0,0,0,0,0,0,0,0,0,0,0,0,0,0,0,0,0,0,0,0,0,0,0,0,0,0,0,0,0,0,0,0.0197,0.0196,0,0.0144,0.0143,0.0142,0.0089,0.0088,0.0088,0.0087,-0.0014,-0.0016,-0.0018,0,0,0,0,0,0,0,0,0,0,0,0,0,0.0196,0.0196,0.0197,0.0196,0.0196,0.0144,0.0143,0.0142,0.0089,0.0088,0.0087,0.0087,-0.0013,-0.0016,-0.0018,0,0,0,0,0,0,0,0,0,0,0,0,0,0.0174,0.0197,0.0197,0.0164,0.0161,0.0144,0.0143,0.0142,0.0089,0.0088,0.0087,0.0086,-0.0012,-0.0015,-0.0018,-0.0021,0,0,-0.0028,-0.003,0,0,0,0,0,0,0,0,0.0175,0.0174,0.0169,0.0166,0.0162,0.0123,0.0106,0.0086,0.0089,0.0115,0.0087,0.0086,0.0029,0.0023,0.0013,-0.0025,-0.003,-0.0029,-0.003,-0.0032,-0.0033,0,0,0,0,0,0,0,0.0177,0.0175,0.0174,0.0169,0.0165,0.0133,0.0129,0.0101,0.0076,0.0112,0.0109,0.0105,0.0027,0.0016,0.001,-0.0031,-0.0028,-0.0031,-0.0033,-0.0035,-0.0102,-0.0102,0,0,0,0,0,0,0.019,0.0177,0.0176,0.0173,0.0168,0.0134,0.0129,0.0135,0.0077,0.0068,0.0106,0.0103,0.0022,0.0014,0.0007,-0.0011,-0.0032,-0.0035,-0.0037,-0.0102,-0.0102,-0.0102,0,0,0,0,0,0,0.0191,0.0191,0.0178,0.0174,0.017,0.0135,0.0142,0.0135,0.0122,0.0073,0.0062,0.0101,0.0021,0.0011,-0.0013,-0.0015,-0.0036,-0.0039,-0.0102,-0.0102,-0.0102,-0.0038,0,0,0,0,0,0,0.0191,0.0192,0.0196,0.0176,0.0171,0.0169,0.0143,0.0135,0.0122,0.0118,0.0065,0.0055,0.002,-0.0007,-0.0016,-0.0019,-0.0042,-0.0102,-0.0102,-0.0102,-0.004,-0.0035,-0.0031,0,0,0,0,0,0.0191,0.0203,0.0197,0.0196,0.018,0.0169,0.0164,0.0134,0.0123,0.0119,0.009,0.0056,-0.0013,-0.0009,-0.0019,-0.0024,-0.0103,-0.0102,-0.0102,-0.0042,-0.0036,-0.0032,0,0,0,0,0,0,0.0197,0.0198,0.0191,0.02,0.0186,0.0161,0.0154,0.014,0.0115,0.0108,0.0064,0.0053,0.0032,-0.0003,0.0002,-0.0044,-0.0066,-0.0067,-0.0017,-0.0012,-0.0008,0.0009,-0.0044,0,0,0,0,0,0.0205,0.0217,0.0205,0.021,0.0207,0.0184,0.0175,0.0157,0.0135,0.0123,0.0091,0.0054,0.0026,0.0003,-0.0025,-0.0048,-0.0078,-0.006,-0.0056,-0.0052,-0.0045,-0.0088,-0.0087,-0.0101,-0.0101,-0.0101,0,0,0.021,0.021,0.0217,0.0213,0.02,0.0203,0.0175,0.0166,0.017,0.0116,0.0109,0.0074,0.0027,0.0004,-0.0011,-0.0028,-0.0063,-0.0052,-0.0048,-0.0043,-0.0087,-0.0086,-0.0085,-0.0101,-0.0101,-0.0101,0,0,0.0231,0.0227,0.0246,0.0241,0.0229,0.0214,0.0216,0.0196,0.0186,0.0174,0.0141,0.0107,0.0063,0.0029,0.0006,0.0016,-0.0031,0.0002,0.0028,-0.0013,-0.0012,-0.0012,-0.0042,-0.0045,-0.0005,-0.0005,-0.0005,0,0.0235,0.026,0.0246,0.026,0.0261,0.0225,0.0242,0.0229,0.0204,0.0202,0.0177,0.0119,0.0074,0.005,0.0048,0.0025,0.0,0.0014,-0.0007,-0.0007,-0.0008,-0.0039,-0.0043,-0.0002,-0.0003,-0.0003,-0.0003,0,0.0276,0.0289,0.0297,0.0308,0.0305,0.0309,0.0295,0.029,0.027,0.0252,0.023,0.0171,0.0135,0.0109,0.0078,0.0054,0.0037,0.0013,-0.0016,-0.0002,-0.0036,-0.0041,0.0002,0.0001,0.0,-0.0001,0,0,0.0302,0.0324,0.0327,0.0344,0.0332,0.0338,0.0344,0.0341,0.0354,0.0308,0.0315,0.0247,0.0213,0.0185,0.0138,0.009,0.0057,0.0051,0.0048,0.0029,-0.0024,-0.0054,-0.0063,0.003,0.0029,0.0029,-0.0043,0,0.0335,0.0383,0.0379,0.0413,0.0434,0.041,0.0424,0.0414,0.0394,0.039,0.0323,0.0308,0.0244,0.0228,0.0172,0.0093,0.0046,0.008,-0.0041,-0.0045,-0.0068,-0.007,-0.0033,-0.0096,-0.0049,-0.005,-0.005,0,0.0376,0.0404,0.0455,0.0481,0.0488,0.0502,0.0519,0.0527,0.0505,0.0491,0.0451,0.0403,0.0338,0.028,0.0147,0.0173,0.0083,0.0011,0.0006,-0.0048,-0.0085,-0.0105,-0.0107,-0.0059,-0.0059,-0.0058,-0.0057,0,0.0414,0.0453,0.05,0.051,0.0534,0.0556,0.0565,0.0559,0.0584,0.056,0.0564,0.0477,0.0443,0.0318,0.0166,0.0158,0.0015,-0.0016,-0.0127,-0.013,-0.0135,-0.0138,-0.0111,-0.011,-0.011,-0.011,-0.011,0,0.0452,0.0486,0.0528,0.0556,0.0615,0.0611,0.0664,0.0663,0.0673,0.0713,0.0625,0.0623,0.0449,0.0346,0.0198,0.0023,0.0038,-0.012,-0.0153,-0.0112,-0.0111,-0.0111,-0.011,-0.0113,-0.0112,-0.0112,-0.0111,0,0.0482,0.0508,0.0565,0.0613,0.0637,0.068,0.0741,0.0778,0.0778,0.0827,0.0827,0.0735,0.0602,0.0422,0.0218,0.0074,-0.0096,-0.0162,-0.0098,-0.0123,-0.022,-0.0215,-0.0291,-0.0293,-0.0294,-0.0295,-0.0296,0,0.0502,0.0536,0.0616,0.0657,0.0683,0.075,0.0802,0.0832,0.088,0.0897,0.0924,0.0819,0.0756,0.0442,0.0175,-0.008,-0.0111,-0.0223,-0.0244,-0.0215,-0.024,-0.0233,-0.0226,-0.0223,-0.0223,-0.0223,-0.0223,0,0.0528,0.0557,0.0611,0.0706,0.0774,0.0853,0.0929,0.0993,0.104,0.1076,0.1095,0.1049,0.0768,0.0505,0.015,-0.0026,-0.0182,-0.0239,-0.0227,-0.0184,-0.0158,-0.018,-0.0174,-0.0226,-0.0226,-0.0226,-0.0225,-0.0225,0.0546,0.059,0.0664,0.0759,0.084,0.0945,0.1028,0.1105,0.1199,0.1269,0.1216,0.116,0.0866,0.0413,0.0104,-0.0211,-0.0203,-0.0311,-0.0307,-0.0303,-0.0284,-0.0262,-0.0345,-0.0346,-0.0346,-0.0347,-0.0347,0,0.057,0.0627,0.0707,0.0825,0.0922,0.0964,0.1108,0.119,0.1311,0.1358,0.1369,0.1096,0.0798,0.0474,0.0009,-0.0285,-0.0295,-0.0372,-0.0312,-0.0308,-0.0304,-0.0283,-0.0346,-0.0347,-0.0347,-0.0348,0,0,0.0579,0.0664,0.0718,0.0879,0.0965,0.1107,0.1202,0.1312,0.1386,0.1424,0.1398,0.1311,0.092,0.0581,0.0188,-0.007,-0.012,-0.0124,-0.0092,0.003,0.0037,-0.0238,-0.0197,0,0,0,0,0]}],[{"header":{"parameterUnit":"m.s-1","parameterCategory":2,"la1":30.2991,"la2":30.254,"lo1":-89.0895,"lo2":-89.0444,"dy":0.0017,"dx":0.0017,"nx":28,"ny":28,"refTime":"2023-08-25T03:00:00:Z","depth":"4","parameterNumber":2,"parameterNumberName":"U-component_of_CURRENTS"},"data":[0,0,0,0,0,0,0,0,0,0,0,0,0,0,0,0,0,0,0,0,0,0,0,0,0,0,0,0,0,0,0,0,0,0,0,0,0,0,0,0,0,0,0,0,0,0,0,0,0,0,0,0,0,0,0,0,0,0,0.1357,0.1358,0,0.1407,0.1408,0.1408,0.1452,0.1453,0.1454,0.1455,0.1504,0.1505,0.1505,0,0,0,0,0,0,0,0,0,0,0,0,0,0.1265,0.1266,0.1357,0.1358,0.1359,0.1407,0.1408,0.1408,0.1452,0.1453,0.1454,0.1455,0.1504,0.1505,0.1505,0,0,0,0,0,0,0,0,0,0,0,0,0,0.1307,0.1267,0.1357,0.1389,0.1392,0.1407,0.1408,0.1408,0.1452,0.1453,0.1454,0.1455,0.1504,0.1505,0.1505,0.1489,0,0,0.1508,0.1509,0,0,0,0,0,0,0,0,0.1304,0.131,0.1383,0.1387,0.1391,0.1427,0.1393,0.1436,0.1452,0.1427,0.1455,0.1456,0.1479,0.1482,0.1485,0.1491,0.1493,0.1508,0.1509,0.1509,0.151,0,0,0,0,0,0,0,0.1301,0.1308,0.1375,0.1384,0.1389,0.1388,0.1396,0.1401,0.1444,0.1429,0.1433,0.1442,0.1481,0.1484,0.1487,0.1494,0.1508,0.1509,0.151,0.151,0.1615,0.1618,0,0,0,0,0,0,0.1301,0.1305,0.1373,0.1376,0.1352,0.1389,0.1397,0.1412,0.1444,0.1451,0.1441,0.1444,0.1482,0.1486,0.1489,0.1576,0.1509,0.151,0.1511,0.1613,0.1616,0.1618,0,0,0,0,0,0,0.1299,0.1307,0.1371,0.1343,0.1352,0.139,0.1406,0.1413,0.1448,0.1454,0.146,0.1474,0.1483,0.1488,0.1531,0.1575,0.1511,0.1512,0.1611,0.1614,0.1617,0.1684,0,0,0,0,0,0,0.1296,0.1306,0.133,0.1344,0.1354,0.1401,0.1406,0.1413,0.1451,0.1456,0.1483,0.1487,0.1485,0.153,0.1532,0.1575,0.1512,0.1608,0.1612,0.1616,0.1679,0.1689,0.1698,0,0,0,0,0,0.1293,0.1315,0.133,0.134,0.1381,0.1402,0.1408,0.1436,0.1452,0.1471,0.1499,0.1488,0.1559,0.1532,0.1534,0.1578,0.1606,0.1611,0.1616,0.1674,0.1687,0.1697,0,0,0,0,0,0,0.1293,0.1322,0.1339,0.1373,0.1398,0.1411,0.1438,0.1452,0.1487,0.1506,0.1507,0.1513,0.1568,0.1565,0.1536,0.1624,0.1584,0.159,0.1628,0.164,0.1649,0.1658,0.1513,0,0,0,0,0,0.1302,0.1327,0.1353,0.1383,0.14,0.1425,0.1443,0.1463,0.1489,0.1507,0.1527,0.1556,0.1584,0.1606,0.1624,0.1665,0.1672,0.17,0.1709,0.1717,0.1729,0.1778,0.1793,0.1635,0.1635,0.1635,0,0,0.1311,0.1332,0.1347,0.1385,0.141,0.1439,0.1439,0.1479,0.1511,0.1505,0.1566,0.1586,0.1602,0.1654,0.1679,0.1662,0.1767,0.1724,0.173,0.1737,0.1785,0.18,0.1814,0.1638,0.1638,0.1637,0,0,0.1325,0.1362,0.1383,0.1411,0.1455,0.1471,0.1489,0.1524,0.1554,0.1603,0.1616,0.1668,0.1701,0.1731,0.1747,0.182,0.1811,0.183,0.189,0.1939,0.1952,0.1963,0.1992,0.2005,0.184,0.184,0.184,0,0.1338,0.1371,0.1394,0.1425,0.1458,0.1489,0.1524,0.1553,0.16,0.1635,0.1636,0.1727,0.1741,0.1812,0.1845,0.1842,0.186,0.1841,0.195,0.1962,0.1973,0.1999,0.2013,0.1844,0.1844,0.1843,0.1843,0,0.1356,0.1403,0.1422,0.1473,0.1507,0.1548,0.1589,0.1635,0.1676,0.1707,0.1793,0.182,0.188,0.1896,0.1893,0.1985,0.197,0.195,0.1917,0.1993,0.2015,0.2029,0.185,0.1848,0.1847,0.1846,0,0,0.1345,0.1419,0.1434,0.1472,0.1543,0.1569,0.1637,0.1702,0.1761,0.1817,0.1891,0.1956,0.1988,0.2009,0.2023,0.2068,0.2158,0.2051,0.2052,0.2072,0.2262,0.2114,0.2114,0.216,0.2163,0.2165,0.2246,0,0.1362,0.142,0.1459,0.1534,0.1572,0.1634,0.1692,0.176,0.1823,0.1901,0.1957,0.2031,0.2026,0.2071,0.212,0.2149,0.2198,0.2138,0.2192,0.2194,0.2047,0.2126,0.2174,0.2256,0.2259,0.2261,0.2263,0,0.137,0.1411,0.1476,0.1573,0.1598,0.165,0.1762,0.1823,0.1934,0.1986,0.2078,0.2117,0.2213,0.2185,0.2291,0.2255,0.2275,0.2285,0.2288,0.2136,0.2071,0.2167,0.2287,0.2285,0.2283,0.2282,0.228,0,0.1339,0.1432,0.1484,0.1518,0.1621,0.1677,0.1747,0.1858,0.1925,0.2057,0.2118,0.2222,0.2288,0.2338,0.2373,0.2348,0.2463,0.2424,0.231,0.2299,0.2376,0.2363,0.2501,0.2501,0.2501,0.2501,0.25,0,0.1332,0.1386,0.148,0.1512,0.1587,0.1677,0.1781,0.1859,0.199,0.2066,0.2172,0.2239,0.2333,0.24,0.2415,0.2404,0.2505,0.2336,0.2317,0.2402,0.2391,0.2385,0.2371,0.2503,0.2503,0.2502,0.2502,0,0.1285,0.1352,0.1414,0.1528,0.1572,0.1628,0.1786,0.1852,0.1993,0.2096,0.2144,0.2285,0.2367,0.2431,0.2511,0.2444,0.2453,0.2424,0.252,0.2503,0.2245,0.2234,0.23,0.2296,0.2292,0.2289,0.2287,0,0.1259,0.1285,0.1399,0.1433,0.149,0.1598,0.1665,0.1829,0.1894,0.21,0.2125,0.227,0.2339,0.2342,0.2419,0.2437,0.2407,0.2391,0.2307,0.2253,0.223,0.2224,0.2217,0.2281,0.228,0.2279,0.2278,0,0.1192,0.124,0.1285,0.1357,0.1427,0.1503,0.1616,0.1656,0.1835,0.198,0.2062,0.2118,0.2204,0.2255,0.2286,0.2294,0.2386,0.2351,0.2358,0.2279,0.223,0.2209,0.2207,0.2265,0.2267,0.2268,0.2269,0,0.1128,0.1139,0.1201,0.1257,0.1335,0.1373,0.1457,0.1543,0.1639,0.1857,0.1884,0.2042,0.2182,0.2184,0.2218,0.2209,0.2168,0.2082,0.2102,0.2117,0.2017,0.1925,0.1866,0,0,0,0,0,0.1051,0.1057,0.1099,0.1147,0.122,0.1273,0.1399,0.1488,0.1661,0.1665,0.1774,0.1847,0.1917,0.2009,0.1961,0.2123,0.2163,0.2058,0.2072,0.2194,0.2208,0.2106,0,0,0,0,0,0,0.0993,0.1024,0.1054,0.1041,0.1063,0.1134,0.121,0.133,0.135,0.1533,0.1585,0.1727,0.1823,0.1921,0.1924,0.1946,0.1914,0.2161,0.2156,0.2185,0.2199,0.2211,0.211,0,0,0,0,0]},{"header":{"parameterUnit":"m.s-1","parameterCategory":2,"la1":30.2991,"la2":30.254,"lo1":-89.0895,"lo2":-89.0444,"dy":0.0017,"dx":0.0017,"nx":28,"ny":28,"refTime":"2023-08-25T03:00:00:Z","depth":"4","parameterNumber":3,"parameterNumberName":"V-component_of_CURRENTS"},"data":[0,0,0,0,0,0,0,0,0,0,0,0,0,0,0,0,0,0,0,0,0,0,0,0,0,0,0,0,0,0,0,0,0,0,0,0,0,0,0,0,0,0,0,0,0,0,0,0,0,0,0,0,0,0,0,0,0,0,0.0226,0.0225,0,0.0194,0.0193,0.0193,0.0165,0.0165,0.0165,0.0165,0.0111,0.011,0.0109,0,0,0,0,0,0,0,0,0,0,0,0,0,0.0227,0.0227,0.0226,0.0225,0.0225,0.0194,0.0193,0.0193,0.0165,0.0165,0.0165,0.0165,0.0112,0.011,0.0109,0,0,0,0,0,0,0,0,0,0,0,0,0,0.0212,0.0227,0.0226,0.0209,0.0207,0.0194,0.0193,0.0192,0.0165,0.0165,0.0165,0.0165,0.0112,0.011,0.0108,0.0101,0,0,0.0103,0.0102,0,0,0,0,0,0,0,0,0.0213,0.0212,0.0212,0.021,0.0208,0.0185,0.0174,0.0161,0.0166,0.018,0.0165,0.0165,0.0135,0.0131,0.0124,0.0099,0.0096,0.0102,0.0101,0.01,0.01,0,0,0,0,0,0,0,0.0214,0.0213,0.0211,0.0211,0.0209,0.0191,0.0189,0.0171,0.0157,0.0178,0.0177,0.0176,0.0134,0.0126,0.0122,0.0096,0.0102,0.0101,0.01,0.0099,0.006,0.006,0,0,0,0,0,0,0.0224,0.0214,0.0212,0.021,0.0212,0.0191,0.0189,0.0191,0.0158,0.0153,0.0176,0.0175,0.0129,0.0125,0.012,0.0116,0.01,0.0099,0.0097,0.006,0.006,0.0061,0,0,0,0,0,0,0.0224,0.0224,0.0214,0.0213,0.021,0.0192,0.0195,0.0191,0.0187,0.0157,0.0151,0.0177,0.0129,0.0123,0.0111,0.0114,0.0098,0.0096,0.006,0.006,0.006,0.0104,0,0,0,0,0,0,0.0224,0.0224,0.023,0.0213,0.0211,0.0212,0.0195,0.019,0.0187,0.0185,0.0156,0.015,0.0128,0.0114,0.0109,0.0111,0.0094,0.006,0.006,0.006,0.0103,0.0106,0.0109,0,0,0,0,0,0.0224,0.0235,0.023,0.023,0.0219,0.0212,0.0209,0.0193,0.0188,0.0189,0.017,0.0151,0.0112,0.0113,0.0107,0.0108,0.006,0.006,0.006,0.0101,0.0105,0.0109,0,0,0,0,0,0,0.0235,0.0233,0.0227,0.0236,0.0227,0.0208,0.021,0.02,0.0186,0.0186,0.0155,0.0149,0.0138,0.0118,0.012,0.0097,0.0082,0.0081,0.0115,0.0118,0.0121,0.0124,0.0093,0,0,0,0,0,0.0242,0.0252,0.024,0.0248,0.0246,0.0229,0.0225,0.0217,0.0202,0.0196,0.0176,0.0153,0.0134,0.0124,0.0104,0.0094,0.0058,0.009,0.0093,0.0096,0.0094,0.0039,0.0037,0.0062,0.0062,0.0061,0,0,0.0246,0.0249,0.0252,0.0251,0.0243,0.0245,0.0226,0.0227,0.0228,0.0193,0.0189,0.0166,0.0135,0.0123,0.0116,0.0107,0.0071,0.0096,0.0099,0.0095,0.0039,0.0037,0.0034,0.0062,0.0062,0.0062,0,0,0.0265,0.0265,0.0278,0.0275,0.0272,0.0262,0.0266,0.0252,0.0246,0.024,0.0214,0.0193,0.0168,0.0142,0.0127,0.0135,0.0091,0.013,0.0146,0.0093,0.009,0.0088,0.0044,0.0037,0.0129,0.0129,0.013,0,0.0269,0.0286,0.028,0.029,0.0291,0.0274,0.0284,0.0275,0.0259,0.0254,0.0246,0.0198,0.0175,0.015,0.0153,0.0142,0.0106,0.0136,0.0097,0.0093,0.0089,0.0045,0.0037,0.0132,0.0131,0.0131,0.0131,0,0.0294,0.0306,0.0314,0.0322,0.0323,0.0329,0.0319,0.0317,0.0309,0.0293,0.0272,0.0235,0.0205,0.0194,0.0177,0.0142,0.0124,0.0109,0.0088,0.0089,0.0043,0.0033,0.0135,0.0134,0.0133,0.0133,0,0,0.0303,0.0328,0.033,0.0342,0.0342,0.0346,0.0351,0.0346,0.0348,0.0322,0.0311,0.0274,0.0248,0.0229,0.0198,0.0152,0.01,0.0123,0.0119,0.0082,-0.0015,-0.0013,-0.0024,0.0075,0.0074,0.0072,-0.0035,0,0.0322,0.0356,0.0361,0.0385,0.0397,0.0388,0.0395,0.0388,0.0374,0.0358,0.0312,0.0292,0.0263,0.0249,0.0199,0.0125,0.0076,0.0131,-0.0012,-0.0017,-0.0015,-0.0035,0.0068,-0.0042,-0.0045,-0.0046,-0.0047,0,0.0339,0.0364,0.0399,0.0422,0.0426,0.0437,0.0444,0.045,0.0423,0.041,0.0372,0.0333,0.0272,0.0246,0.0113,0.0148,0.0072,0.001,0.0004,-0.0017,-0.0033,-0.0047,-0.0065,-0.0064,-0.0063,-0.0061,-0.006,0,0.0349,0.0384,0.0419,0.0426,0.045,0.0464,0.0475,0.0465,0.0476,0.044,0.0432,0.0351,0.0311,0.0203,0.0086,0.0093,-0.0069,-0.0076,-0.0149,-0.015,-0.0138,-0.0134,-0.0178,-0.0178,-0.0178,-0.0178,-0.0177,0,0.036,0.0384,0.043,0.0445,0.0486,0.0492,0.0523,0.0519,0.0517,0.0527,0.0462,0.0438,0.0295,0.0192,0.0084,-0.0062,-0.0075,-0.0155,-0.0182,-0.0116,-0.0108,-0.0145,-0.014,-0.0182,-0.0181,-0.018,-0.0179,0,0.0357,0.0389,0.0427,0.0471,0.0492,0.0519,0.0567,0.0586,0.0578,0.0585,0.0576,0.0489,0.0355,0.0208,0.0024,-0.006,-0.02,-0.0248,-0.0164,-0.0184,-0.0245,-0.0236,-0.0343,-0.0344,-0.0344,-0.0345,-0.0346,0,0.0358,0.0381,0.0448,0.0482,0.0506,0.0555,0.0594,0.0616,0.0638,0.0617,0.0618,0.0501,0.0424,0.0174,0.0012,-0.0208,-0.0233,-0.0307,-0.0279,-0.0248,-0.0264,-0.0254,-0.0244,-0.0347,-0.0347,-0.0347,-0.0347,0,0.0355,0.0383,0.0423,0.05,0.0552,0.0609,0.0662,0.0686,0.0708,0.0697,0.0653,0.0529,0.0373,0.0181,0.0004,-0.015,-0.026,-0.0316,-0.0315,-0.0289,-0.0255,-0.0267,-0.0257,-0.035,-0.035,-0.035,-0.0349,0,0.0358,0.0384,0.0449,0.0515,0.0587,0.0651,0.0675,0.0707,0.0733,0.0716,0.0696,0.0541,0.0446,0.021,0.005,-0.0107,-0.0143,-0.0183,-0.019,-0.0189,-0.011,-0.0041,-0.0103,0,0,0,0,0,0.0363,0.0404,0.046,0.0542,0.0613,0.0659,0.0721,0.074,0.0761,0.0742,0.0726,0.059,0.0356,0.0249,0.0093,0.0021,-0.0182,-0.0169,-0.0235,-0.0366,-0.0362,-0.0296,0,0,0,0,0,0,0.0368,0.0427,0.0461,0.0561,0.0617,0.0701,0.0745,0.0755,0.0744,0.0737,0.0615,0.0555,0.0322,0.0448,0.0092,0.0042,-0.002,-0.0281,-0.0284,-0.0367,-0.0364,-0.0362,-0.0292,0,0,0,0,0]}]]